Regional Weather Roundup
Issued by NWS

Home | Current Version | Previous Version | Text Only | Print | Product List | Glossary On
Versions: 1 2 3 4 5 6 7 8 9 10 11 12 13 14 15 16 17 18 19 20 21 22 23 24 25 26 27 28 29 30 31 32 33 34 35 36 37 38 39 40 41 42 43 44 45 46 47 48 49 50
000
ASUS44 KMEG 262010
RWRTN
TENNESSEE HOURLY STATE WEATHER ROUNDUP
NATIONAL WEATHER SERVICE MEMPHIS TN
300 PM CDT THU MAY 26 2016

TNZ002-004-019-021-049-052-054-088>092-262100-
WEST TENNESSEE

CITY           SKY/WX    TMP DP  RH WIND       PRES   REMARKS
MEMPHIS INTL   FAIR      88  72  58 S13G18    29.98F HX  94
NWS MEMPHIS      N/A     88 N/A N/A MISG        N/A
JACKSON        FAIR      88  72  58 S12       29.99F HX  94
DYERSBURG      FAIR      88  72  58 SW7G16    29.98S HX  94
UNION CITY     MOSUNNY   84  73  70 SW9       29.97S HX  91
PARIS          MOSUNNY   84  72  65 SW9       29.99S
LEXINGTON      MOSUNNY   86  72  62 S9        29.99S HX  92
$$

TNZ008-025-027-028-033-062-065-066-262100-
NORTH MIDDLE TENNESSEE

CITY           SKY/WX    TMP DP  RH WIND       PRES   REMARKS
NASHVILLE      PTSUNNY   90  63  40 S9G18     30.02F HX  91
CLARKSVILLE    FAIR      75  66  73 NE14      30.02R
SMYRNA         FAIR      90  62  38 S8G17     30.03F HX  90
COOKEVILLE     SUNNY     88  66  48 SW14      30.06F HX  90
CROSSVILLE     FAIR      80  63  55 SE9       30.12F
$$

TNZ061-075-076-078-094-096-097-262100-
SOUTH MIDDLE TENNESSEE

CITY           SKY/WX    TMP DP  RH WIND       PRES   REMARKS
FAYETTEVILLE   MOSUNNY   88  61  40 S13       30.06F
TULLAHOMA      SUNNY     86  59  39 S9        30.07F
WINCHESTER     SUNNY     88  63  42 VRB7      30.07F
MCMINNVILLE    SUNNY     88  64  45 SW8       30.06F
COLUMBIA       SUNNY     90  66  45 S12       30.01F HX  92
SHELBYVILLE    MOSUNNY   91  64  40 S10       30.05F HX  93
$$

TNZ017-018-042-046-047-262100-
NORTHEAST TENNESSEE

CITY           SKY/WX    TMP DP  RH WIND       PRES   REMARKS
TRI CITIES     PTSUNNY   72  63  73 CALM      30.17F
$$

TNZ012-013-036-069-073-074-262100-
CENTRAL EAST TENNESSEE

CITY           SKY/WX    TMP DP  RH WIND       PRES   REMARKS
KNOXVILLE      FAIR      81  63  54 E10       30.11F
OAK RIDGE      FAIR      82  63  52 VRB5      30.13F
GATLINBURG     SUNNY     77  64  65 E8        30.12F
$$

TNZ083-085-099-262100-
SOUTHEAST TENNESSEE

CITY           SKY/WX    TMP DP  RH WIND       PRES   REMARKS
CHATTANOOGA    FAIR      89  56  32 SE5       30.07F
$$

SKY/WX REPORTED AS FAIR MEANS FEW OR NO CLOUDS BELOW
12 THOUSAND FEET.





USA.gov is the U.S. government's official web portal to all federal, state and local government web resources and services.